Wind_Speed
7 6 5 5 4 4 4 4 4 4 4 5 5 5 5 5 5 6 6 7 7 8 8 9 9 10 10 10 10 10 11 12 13 14 16 12 8 10 10 9 8 8 7 6 5 4 4 6 6 7 6 5 4 3 4 5 5 3 2 2 3 3 4 5 7 6 3 4 5 5 6 5 6 9 10 10 12 16 16 17 18 19 22 24 25 23 21 18
7 7 6 6 5 5 5 4 4 4 4 4 5 5 5 5 5 6 6 6 6 7 8 8 9 10 10 11 11 12 12 13 14 16 14 10 8 10 11 12 11 10 9 7 6 4 4 6 6 7 7 6 4 4 4 6 8 5 3 2 4 5 6 7 7 6 4 5 7 10 10 6 9 11 8 7 11 13 12 14 16 20 24 25 28 27 26 24
9 8 8 7 7 6 6 6 5 5 5 5 5 6 6 6 6 6 6 7 7 7 8 9 9 10 11 11 12 13 13 15 15 11 6 2 4 7 8 12 13 12 10 8 6 5 5 6 6 7 9 7 5 5 4 5 7 6 4 2 7 7 6 10 12 12 13 12 10 12 9 6 11 13 8 7 11 11 10 13 14 20 26 26 27 28 28 28
10 10 9 9 8 8 8 8 7 7 7 7 7 7 7 8 8 8 8 8 8 9 9 10 10 11 12 12 13 13 14 15 9 4 3 2 8 12 8 7 12 15 13 10 8 8 8 7 7 7 8 7 5 6 5 8 8 5 6 5 7 5 4 14 17 16 17 15 11 11 6 8 15 14 12 10 9 10 13 18 19 22 25 23 25 28 29 29
11 11 11 11 10 10 10 10 10 9 9 9 9 9 10 10 10 10 10 10 10 10 10 11 11 12 13 13 14 13 12 8 2 5 8 10 13 14 8 5 9 13 15 12 10 11 10 9 8 8 7 5 5 4 5 12 11 5 8 13 11 6 4 16 17 13 14 13 11 10 6 11 16 14 17 13 8 15 19 21 23 25 25 23 23 26 28 30
13 13 13 13 12 12 12 12 12 12 12 12 11 12 12 12 13 12 13 12 12 12 12 12 13 13 14 15 15 14 8 3 6 11 13 11 10 10 7 6 6 10 14 14 12 12 11 10 9 9 6 4 6 7 6 12 14 5 7 12 17 14 11 19 20 15 16 13 12 10 10 15 15 15 19 16 20 31 34 29 30 32 29 26 24 26 28 30
13 14 14 14 14 14 14 14 14 14 14 14 14 14 14 14 14 15 15 14 14 14 14 14 14 14 15 16 16 14 9 10 15 14 11 8 8 10 9 8 6 7 12 14 15 13 12 12 12 10 5 2 5 8 7 10 13 8 6 7 15 19 19 25 25 22 21 18 19 16 15 16 14 14 13 18 33 42 41 38 38 38 34 29 27 28 30 30
14 14 14 14 15 15 16 16 16 16 16 16 16 16 16 16 16 17 16 16 16 16 16 16 16 16 16 17 16 13 12 16 16 11 9 8 10 13 12 11 8 7 9 12 15 14 13 13 15 11 4 4 6 6 5 5 7 8 8 8 10 14 19 25 24 24 23 21 22 17 16 22 24 19 15 29 46 45 40 39 35 32 32 31 31 30 31 31
14 14 14 15 15 16 16 17 17 17 17 17 17 18 18 18 18 18 18 18 18 17 17 17 17 18 17 18 17 12 15 17 11 8 10 11 14 16 16 13 10 9 8 11 13 14 15 15 16 14 8 8 6 5 5 3 4 9 12 11 9 13 19 21 21 20 18 19 18 11 15 27 28 18 17 36 44 37 33 28 22 20 23 26 28 30 31 33
15 15 15 16 16 17 17 18 18 19 19 19 19 19 20 20 20 20 20 20 19 19 19 18 18 18 18 20 15 9 16 16 11 13 15 16 19 19 18 14 12 12 10 11 13 15 17 15 13 12 12 9 6 6 5 5 5 6 9 12 13 16 21 20 19 19 14 16 17 11 13 26 22 6 13 35 34 26 26 23 19 17 21 23 24 27 29 32
15 15 16 16 16 17 17 18 19 19 20 20 20 21 21 22 22 22 22 22 22 21 20 19 19 19 20 22 17 14 20 21 17 20 19 20 21 20 18 15 14 13 12 12 12 15 16 15 11 7 7 5 4 5 6 8 7 8 8 11 15 14 21 22 17 18 12 11 18 16 12 20 13 3 18 39 35 26 27 28 28 25 26 27 25 26 27 31
16 16 16 16 17 17 17 18 19 19 20 20 20 20 21 22 23 23 23 23 23 22 21 20 19 20 20 23 27 25 25 23 21 22 20 21 22 22 20 17 17 15 14 13 13 14 14 15 14 11 8 5 3 2 4 5 5 9 6 7 13 9 15 22 15 15 11 7 11 10 5 12 6 11 29 40 35 28 26 30 32 30 32 31 29 29 29 31
18 18 18 18 19 19 19 19 20 21 21 21 20 20 21 22 22 23 23 22 22 22 21 19 19 20 18 23 31 29 25 24 23 23 22 23 24 24 23 20 17 15 15 14 14 14 14 14 15 15 15 9 4 2 4 5 6 10 4 1 9 7 10 12 3 4 6 5 6 8 3 9 8 20 34 35 31 26 24 29 32 31 32 32 31 31 29 31
18 19 19 19 20 20 21 21 22 22 22 22 22 21 21 22 22 23 22 21 22 21 20 19 18 18 17 24 32 29 27 27 26 26 24 25 25 25 24 21 17 16 15 15 15 15 13 12 12 13 15 13 9 6 5 7 5 5 3 1 3 3 7 7 2 1 3 5 10 10 4 9 11 25 33 28 25 22 22 28 31 31 31 31 31 31 29 29
18 19 19 20 20 21 21 22 23 23 24 24 24 23 22 22 22 22 22 21 21 20 20 18 17 16 14 23 30 26 25 27 27 26 23 23 24 24 23 19 17 16 15 15 15 15 13 10 9 9 10 12 10 4 4 5 3 2 2 4 2 2 7 12 9 7 9 6 10 11 5 8 11 25 33 25 19 19 20 26 30 31 33 33 32 31 31 33
16 16 17 18 18 19 20 21 22 23 24 24 25 25 24 24 23 23 22 22 20 19 19 17 17 14 9 16 24 23 25 27 26 23 22 22 22 22 21 16 14 15 15 15 14 13 11 8 8 8 8 8 3 3 4 4 5 2 2 5 4 5 4 8 12 9 12 5 6 8 6 7 7 19 33 26 19 18 18 25 30 32 35 34 33 32 34 38
11 12 13 13 14 15 16 18 19 20 22 23 24 24 24 24 23 22 22 21 19 18 15 13 13 12 10 15 22 26 29 27 25 24 23 23 21 20 20 17 15 14 13 13 12 9 9 9 6 5 5 3 3 5 2 3 7 3 0 3 5 7 5 5 10 7 6 5 5 8 8 11 11 16 30 32 26 18 17 26 31 32 35 35 36 37 40 43
9 9 10 10 11 12 13 15 16 18 19 20 22 23 22 21 20 20 19 19 16 12 10 10 8 4 11 18 21 26 26 22 20 20 20 20 19 18 18 16 14 13 11 8 8 10 10 7 4 1 3 2 3 5 4 7 9 5 4 5 4 6 7 7 8 6 3 4 6 5 8 15 15 14 25 37 36 25 22 30 33 33 36 38 40 43 46 47
7 7 8 9 9 10 11 13 14 15 18 17 18 19 19 18 16 15 14 14 12 7 5 10 14 6 8 13 15 18 19 16 15 15 18 18 17 17 16 14 12 12 10 5 6 11 11 4 4 2 4 7 7 8 11 14 12 9 7 6 6 7 7 7 11 10 5 6 7 8 13 16 15 15 19 33 38 31 30 33 31 32 35 38 41 45 46 47
6 6 7 8 9 9 10 12 13 14 16 16 17 16 13 11 8 7 8 12 16 15 14 14 19 18 16 15 15 16 16 17 17 17 19 18 15 14 15 13 11 11 8 5 5 8 10 5 3 7 12 13 10 13 17 16 10 6 4 6 8 8 9 9 13 12 3 3 8 10 16 16 16 16 16 27 32 27 28 29 29 31 33 37 40 44 45 46
6 6 7 8 9 10 10 12 13 13 14 16 17 13 8 7 4 6 10 14 20 23 25 24 23 26 26 23 21 19 17 17 19 20 18 16 14 12 14 13 9 5 5 5 5 3 6 7 8 14 17 11 9 13 14 10 7 6 5 7 8 6 12 13 13 14 3 2 8 9 15 18 16 15 16 22 21 19 26 26 27 32 33 36 39 43 45 47
7 7 7 7 8 9 9 11 12 12 13 14 15 12 9 9 7 8 10 12 20 24 26 28 28 32 33 31 30 26 20 15 17 19 16 15 17 13 12 12 6 4 4 5 4 1 4 6 12 20 13 2 3 6 6 7 8 7 6 6 7 6 11 12 10 12 3 2 8 9 14 16 14 16 16 18 18 21 32 33 32 35 34 36 40 43 46 46
10 9 8 8 8 9 9 10 11 11 12 12 13 13 11 11 10 11 10 8 16 22 24 27 30 33 35 34 35 32 25 18 16 18 18 18 19 15 12 11 5 3 5 6 7 6 5 7 16 20 7 1 5 4 7 5 6 6 7 6 8 7 8 9 6 7 3 3 7 10 14 13 12 16 15 21 27 24 32 40 41 41 39 42 46 46 46 47
13 12 12 10 10 11 10 10 10 9 10 10 11 12 12 12 11 12 11 6 8 14 21 27 26 29 33 31 29 28 26 22 16 14 18 21 19 12 10 9 5 3 6 12 14 11 8 7 11 12 7 7 9 5 6 5 6 8 9 7 10 12 12 11 5 6 5 5 6 8 14 11 9 14 13 16 21 19 27 36 37 42 46 48 47 45 47 49
16 15 14 14 13 13 13 12 9 9 11 8 9 11 12 12 10 12 10 5 5 7 13 17 17 21 25 23 20 18 15 17 19 16 15 21 21 10 5 9 7 5 10 12 10 10 10 9 7 6 7 9 8 7 7 7 8 8 7 12 18 16 12 12 7 7 5 5 5 5 9 10 7 12 11 8 7 10 18 22 27 37 43 42 41 42 45 47
18 17 16 16 15 15 15 12 8 10 12 9 9 11 12 10 10 12 8 2 5 4 4 6 7 7 9 11 13 10 3 8 16 20 17 18 23 14 4 6 6 5 8 7 4 4 6 10 9 8 8 8 6 6 8 10 9 8 6 13 17 13 9 11 8 3 1 4 4 3 1 10 7 6 9 8 6 10 13 13 19 29 35 34 34 38 42 42
19 19 18 17 17 16 16 13 11 12 11 10 10 11 11 8 9 11 7 3 5 3 4 5 5 3 2 5 11 11 3 4 3 12 18 18 21 17 6 5 4 4 5 3 3 3 4 5 6 7 7 6 5 8 9 11 7 7 5 8 10 9 9 8 5 4 4 3 4 1 5 6 14 5 8 10 10 11 13 13 15 22 30 32 30 35 39 39
19 19 19 18 17 17 17 17 16 13 11 10 11 10 8 7 7 7 4 3 5 3 4 3 5 2 2 8 15 10 0 0 2 5 13 16 17 12 6 7 6 4 5 5 5 4 4 5 7 8 6 5 8 9 7 11 7 6 1 5 6 5 5 4 4 4 1 4 3 3 6 3 13 6 3 4 7 9 13 15 15 17 24 28 28 33 35 34
18 18 18 16 15 17 18 18 18 15 12 10 9 9 7 5 5 5 3 3 4 2 2 3 5 2 2 9 13 7 2 3 2 3 7 10 14 8 2 5 5 4 5 6 8 5 2 4 6 9 6 6 9 5 6 12 8 3 6 5 4 4 3 4 4 3 2 4 5 6 7 4 11 6 4 3 3 7 11 13 12 13 19 25 26 29 29 27
19 19 18 16 16 18 19 18 17 15 13 10 9 7 5 2 1 2 3 5 2 1 2 3 3 2 4 6 3 4 2 2 2 6 4 4 9 6 1 2 2 2 4 4 7 8 4 1 2 6 7 6 4 2 2 8 6 4 6 5 6 5 4 4 1 3 1 8 6 11 13 7 8 5 4 3 4 6 8 7 8 11 17 23 23 25 26 22
20 20 19 20 20 20 20 19 16 15 14 12 11 5 1 1 2 3 7 2 1 1 2 2 1 3 5 4 1 2 1 2 2 6 3 2 4 2 1 1 0 2 3 5 6 7 5 2 1 5 8 5 6 3 1 1 4 4 3 3 3 4 4 4 4 4 1 9 5 11 13 10 9 6 2 5 6 5 7 7 7 9 13 18 20 21 22 21
21 21 21 23 24 23 22 21 18 17 15 13 13 8 3 1 2 6 6 3 1 3 2 2 1 3 4 2 2 3 2 2 3 5 3 2 3 3 3 5 3 1 4 4 3 5 3 6 5 2 5 7 6 2 3 4 3 5 3 4 1 4 3 3 4 1 4 8 3 6 7 6 12 9 4 9 10 9 9 8 10 9 11 18 21 22 23 25
23 23 23 24 26 27 25 22 21 19 16 13 10 3 2 2 4 5 3 2 2 1 1 1 1 3 4 2 2 3 1 2 4 3 2 3 2 4 5 4 5 2 5 3 2 4 4 4 4 3 3 9 10 5 3 2 4 6 5 6 4 3 2 4 4 2 6 6 2 3 5 4 9 6 8 14 14 12 10 11 17 17 18 24 25 25 26 28
23 23 24 25 25 27 26 23 22 20 17 13 7 4 2 6 5 0 2 5 4 4 2 2 3 2 2 2 3 3 2 3 4 4 2 3 1 3 4 5 5 3 2 2 2 2 4 7 5 7 3 9 13 11 8 4 5 6 5 5 5 5 4 4 4 5 7 5 3 1 4 5 4 3 7 11 10 9 9 14 18 18 21 24 25 27 29 31
23 23 24 25 26 26 25 24 23 21 18 12 7 3 4 7 4 0 2 4 3 4 5 2 4 2 3 3 4 3 5 5 2 4 3 3 3 4 3 5 7 5 3 3 2 3 4 9 7 5 2 11 12 10 7 6 2 3 3 3 4 5 5 4 7 6 3 3 4 3 4 5 4 6 8 8 9 10 11 14 12 14 19 19 21 26 29 31
23 23 24 26 28 27 25 25 23 21 19 12 5 4 8 6 3 3 2 2 1 1 3 4 0 1 4 3 3 3 5 4 0 2 3 3 3 5 4 4 8 10 8 5 3 2 4 7 5 2 0 6 6 3 4 5 2 2 3 3 5 4 6 5 8 3 0 5 7 6 8 6 5 10 8 4 8 10 10 12 10 13 18 15 18 21 20 21
23 23 24 27 27 25 25 25 22 23 20 12 5 8 6 3 5 6 2 3 2 2 2 3 2 3 3 3 3 3 2 2 1 2 2 2 3 5 5 5 7 14 16 11 5 4 5 7 4 5 3 4 2 2 2 0 4 5 4 5 2 2 2 2 2 1 3 9 8 8 14 11 5 8 3 5 5 6 6 7 6 9 10 6 10 15 15 16
22 22 25 28 26 23 23 21 21 23 18 8 8 11 5 3 8 8 6 5 2 2 3 4 4 3 3 4 3 2 2 2 2 2 3 3 4 4 5 4 6 11 17 14 5 3 2 6 6 3 4 2 3 2 3 3 2 5 3 2 2 2 3 2 2 3 7 10 7 9 15 12 8 10 7 5 7 8 8 6 4 6 7 4 7 14 18 21
16 16 20 22 19 20 21 20 22 24 14 4 9 10 4 4 8 10 13 10 3 3 4 6 6 3 4 5 4 3 4 4 3 2 4 4 4 3 4 1 3 4 8 8 5 3 1 3 5 1 3 1 3 1 4 3 1 1 1 2 1 3 3 3 3 2 5 10 9 9 11 9 8 10 11 10 8 8 9 7 4 6 8 8 13 18 22 26
10 8 11 10 9 13 18 20 23 21 9 5 10 7 2 3 5 10 19 15 6 5 5 5 6 5 6 7 7 5 3 4 4 3 3 3 3 3 1 1 1 1 1 2 3 1 2 2 6 3 2 2 2 3 6 5 3 2 2 4 3 3 1 1 2 1 3 7 8 8 9 7 5 8 12 10 6 7 8 7 6 7 8 12 17 22 28 33
9 6 8 7 7 11 19 20 16 11 5 6 9 7 5 5 4 7 17 18 11 7 5 3 5 7 7 7 6 4 3 3 6 5 4 4 4 4 3 2 3 2 3 3 1 1 0 2 3 4 5 6 5 4 5 5 4 4 4 4 6 5 3 5 6 4 4 6 7 8 9 7 3 5 10 7 4 7 7 6 5 8 13 18 23 27 32 36
10 7 6 8 10 15 20 15 8 6 5 6 8 7 7 7 6 5 11 15 11 6 4 2 4 5 5 7 6 4 3 3 5 6 5 6 9 8 4 5 8 6 3 1 3 3 3 2 1 4 7 9 10 6 6 5 4 4 4 3 5 5 4 7 9 7 6 7 7 9 10 7 4 7 12 11 7 6 7 9 7 11 17 21 24 29 32 35
10 10 8 7 10 19 18 7 5 7 5 6 7 8 8 6 4 4 7 9 8 5 4 3 4 6 6 6 6 5 4 5 6 7 6 5 8 12 13 11 8 4 1 3 4 3 3 3 2 5 5 7 12 12 8 5 4 4 5 6 8 7 7 8 7 4 6 8 7 9 11 5 3 6 9 11 14 15 15 15 13 15 22 24 24 27 31 34
8 14 15 10 11 18 14 4 6 7 5 6 6 7 9 7 6 7 6 6 6 5 3 4 5 7 7 5 6 6 5 5 7 8 8 5 5 12 20 20 13 6 5 6 4 3 3 2 3 4 5 6 8 8 7 2 4 5 7 10 11 11 12 10 5 3 5 9 10 11 11 6 2 5 7 9 15 17 20 28 30 28 28 29 27 26 26 28
5 9 14 15 17 18 14 8 7 5 5 8 8 8 10 7 9 14 11 8 9 6 3 4 4 5 6 4 4 6 6 6 7 6 5 4 3 5 10 14 14 10 9 9 3 2 3 5 5 5 8 9 10 9 6 2 3 3 5 10 13 14 16 12 7 7 8 9 12 12 11 8 6 6 8 12 16 18 22 31 38 37 33 29 27 22 19 18
3 3 5 8 15 19 20 19 15 7 3 7 7 8 11 10 8 12 11 9 13 12 6 5 4 2 3 3 5 7 8 9 9 5 5 4 3 1 8 11 8 7 10 11 7 1 1 4 7 11 12 12 13 14 10 5 3 3 4 9 11 13 16 12 8 10 10 10 12 12 12 14 12 11 14 16 16 19 21 24 31 39 38 27 19 17 18 17
1 2 1 1 7 13 17 20 16 8 6 7 4 3 9 11 6 6 7 7 11 13 7 5 6 6 5 5 7 9 9 10 10 9 9 6 2 5 12 11 8 13 12 9 10 3 2 4 9 15 16 15 16 18 17 15 14 12 10 11 11 11 12 12 12 14 13 12 13 12 13 18 15 12 17 19 18 19 19 20 24 28 28 25 25 25 24 25
3 3 2 1 2 4 6 8 7 5 7 9 5 4 9 11 7 5 5 3 5 9 6 4 6 9 8 7 7 5 5 8 8 5 4 3 3 5 9 4 4 13 13 9 11 4 3 5 8 14 17 17 18 19 19 19 18 16 15 16 16 16 16 17 19 20 16 15 16 15 17 21 17 14 17 16 13 13 13 15 20 24 28 29 28 28 29 30
4 5 6 4 3 3 4 6 7 5 5 6 3 4 10 13 13 9 4 2 2 4 6 6 3 1 2 3 2 1 1 4 4 0 3 3 3 2 4 3 1 9 11 6 7 3 3 3 5 9 13 14 14 16 18 18 18 18 18 18 18 20 22 23 24 22 20 20 21 20 23 24 16 11 11 11 13 14 17 23 27 28 27 26 26 27 28 29
4 3 5 6 6 7 8 8 6 4 3 5 3 4 6 8 10 7 3 3 3 2 4 3 2 3 2 2 1 2 2 2 1 1 2 3 3 2 2 3 4 5 7 3 2 3 3 4 6 8 9 9 11 12 12 13 15 16 17 17 17 19 22 22 21 18 19 21 21 22 24 18 8 9 10 14 19 20 19 21 21 22 25 26 26 27 28 29
9 6 5 6 5 5 4 4 3 3 3 3 3 3 4 5 5 4 2 2 0 2 3 3 3 2 2 1 1 3 1 2 1 1 2 2 3 4 3 3 5 6 7 3 2 2 3 3 6 8 7 7 8 9 9 10 12 13 14 16 18 18 16 15 15 14 16 18 19 19 15 7 6 9 9 11 16 16 13 13 15 20 24 24 24 25 26 28
10 9 6 4 4 5 3 2 3 3 3 2 0 2 2 2 8 8 3 2 8 10 9 8 4 2 1 2 1 3 1 3 4 8 9 10 13 14 14 14 12 8 4 4 3 3 3 4 5 6 7 8 10 12 11 11 11 12 13 14 15 15 14 15 14 11 10 11 10 8 3 3 6 9 10 12 13 12 13 10 11 18 22 22 24 24 25 27
Wind_Direction
310 313 315 320 323 328 333 340 347 354 0 1 4 7 8 12 14 15 16 15 14 13 8 6 3 360 356 347 337 327 318 313 308 299 294 305 290 259 252 244 245 245 244 251 252 254 227 200 203 208 212 219 231 237 224 215 189 160 103 132 241 207 201 195 192 207 191 260 283 316 293 229 263 275 264 273 259 253 256 249 243 244 246 250 255 256 256 257
299 301 301 303 303 305 309 312 318 326 333 336 343 344 346 351 351 355 358 358 360 359 358 356 353 353 351 348 345 339 332 324 312 301 299 304 285 263 251 243 244 244 244 250 250 250 230 216 215 208 208 214 227 224 210 208 192 178 126 155 231 205 211 209 202 221 218 259 284 297 294 249 254 275 275 267 256 252 254 251 244 246 251 253 255 255 256 255
295 295 295 295 293 295 294 295 299 302 308 314 318 321 324 325 327 332 334 337 340 340 341 341 341 341 340 339 338 338 339 331 321 313 306 329 355 326 280 253 247 243 241 246 240 221 221 230 226 210 207 213 222 217 205 196 197 202 171 215 245 217 234 252 244 248 255 269 290 295 289 256 265 272 259 254 269 265 245 247 241 242 255 262 259 256 255 255
294 294 294 293 293 292 290 290 290 292 296 299 303 307 307 309 311 312 315 320 322 325 328 329 331 331 331 330 330 332 337 333 329 16 32 350 338 335 325 271 252 244 238 240 232 215 218 223 219 209 206 218 220 216 214 202 198 190 177 209 238 193 228 260 258 263 272 278 275 279 291 281 281 273 249 255 289 277 246 251 252 250 264 273 268 262 257 254
295 296 296 295 294 292 290 289 288 290 291 293 296 298 300 302 303 305 308 309 312 316 318 321 323 325 324 323 323 325 341 348 20 31 342 315 317 320 322 288 258 244 236 233 230 218 216 216 212 205 207 223 197 191 230 211 195 177 212 229 236 198 222 265 268 273 279 281 273 275 286 286 288 273 254 244 245 264 266 269 272 271 275 279 274 267 259 254
293 295 296 296 296 294 293 290 290 290 290 292 293 294 297 297 299 302 303 306 309 311 313 316 318 319 319 318 317 317 329 309 295 324 321 314 321 326 325 302 276 250 236 227 229 223 218 217 212 204 203 226 193 192 234 213 197 216 246 239 245 237 239 266 271 272 276 278 274 273 278 283 287 280 267 242 240 266 277 279 279 280 280 278 272 264 257 253
289 291 293 294 294 294 294 292 291 290 290 290 290 291 292 293 295 296 298 302 303 306 310 311 313 315 314 313 310 307 293 277 296 309 307 311 320 327 327 311 297 262 240 229 229 225 224 219 214 212 198 248 222 213 238 219 200 223 263 246 252 248 247 263 270 271 275 274 274 277 281 278 270 276 282 261 263 274 281 282 281 282 279 273 266 259 257 256
284 286 288 290 291 292 292 291 291 291 291 290 290 290 289 289 289 290 292 293 296 299 302 305 308 308 310 309 306 299 280 285 301 302 293 300 308 317 316 305 296 277 257 242 235 229 230 223 221 220 207 237 229 212 225 234 211 215 245 250 253 255 258 268 272 271 271 271 275 278 274 269 266 272 279 273 276 282 284 286 286 284 278 269 263 259 257 256
283 284 285 286 288 289 289 290 290 291 291 291 291 290 289 289 288 288 287 287 290 291 294 298 299 301 303 300 299 291 282 290 298 293 296 297 299 306 304 297 289 281 270 251 239 230 229 228 228 227 238 250 238 230 208 220 236 214 233 256 263 267 274 278 275 271 269 268 269 266 268 272 274 279 274 272 279 287 289 289 291 286 277 269 263 260 258 256
282 283 284 285 285 286 287 288 288 289 289 289 289 290 290 289 289 289 288 287 287 287 289 291 291 294 293 291 288 274 282 291 292 293 297 294 295 298 295 292 286 279 271 257 242 234 232 234 240 237 249 261 248 241 208 200 241 244 258 276 276 279 286 284 276 273 268 267 258 233 257 271 274 282 266 273 279 284 286 288 289 284 280 278 269 263 260 259
281 281 282 282 283 283 284 285 285 286 286 286 286 286 286 286 286 286 286 287 286 286 286 285 287 285 285 283 265 255 282 290 290 292 292 291 291 289 287 282 276 271 262 261 252 247 242 239 243 237 242 254 249 245 229 229 252 285 308 301 287 296 298 285 275 273 260 265 255 223 247 273 273 205 250 271 278 274 277 283 285 282 281 282 276 271 265 262
279 279 280 281 281 282 282 283 283 284 284 284 284 283 283 282 282 282 282 283 283 282 281 280 280 277 278 274 262 266 284 287 285 288 286 287 285 283 283 275 270 264 257 257 254 254 248 240 236 233 239 245 271 296 247 250 291 305 331 317 296 327 309 284 276 268 235 245 253 200 248 281 254 229 251 269 277 271 272 278 281 282 282 282 278 274 271 271
278 279 280 280 281 281 282 282 282 283 283 283 283 283 283 282 281 281 279 279 279 278 278 276 273 272 269 267 270 277 284 282 280 281 281 281 280 279 277 271 266 258 255 254 251 252 247 243 237 237 248 248 255 279 277 320 333 305 327 345 302 337 308 282 286 261 212 221 215 157 254 273 250 254 260 272 276 268 268 272 279 282 283 283 280 276 275 279
281 282 283 283 283 284 284 283 283 283 283 283 282 281 281 282 282 281 280 279 277 276 276 273 270 268 258 263 275 280 279 279 278 276 278 277 276 275 271 267 262 253 252 251 250 251 245 245 239 239 249 247 254 276 306 337 334 299 310 308 304 310 283 290 25 126 240 245 186 163 252 258 263 271 269 276 274 266 261 267 276 279 280 280 277 276 276 280
286 287 287 287 287 287 287 287 286 286 286 285 284 283 282 281 281 280 281 280 277 276 274 272 268 261 254 266 274 277 277 276 276 277 276 272 269 268 266 263 257 249 247 246 247 248 243 235 228 230 246 251 256 287 334 339 339 8 279 283 304 219 269 300 302 218 227 253 173 167 249 254 258 271 275 281 274 264 257 264 273 276 278 277 272 272 275 278
289 291 291 292 293 293 293 292 291 291 290 290 289 288 286 284 283 281 281 280 279 276 271 270 264 250 246 271 272 272 273 271 276 279 271 266 263 261 260 256 249 243 239 241 243 243 234 219 221 231 246 254 226 104 35 344 314 341 215 253 269 254 273 308 301 239 216 224 177 194 237 260 256 267 277 284 278 267 258 264 270 272 275 274 271 270 273 276
294 296 297 300 301 302 303 301 301 300 298 297 295 293 292 290 287 284 281 278 275 269 264 261 255 244 241 261 268 269 271 272 275 273 267 265 260 256 252 244 235 232 231 231 231 223 205 194 203 236 248 245 119 109 64 289 270 297 163 237 246 251 259 284 301 287 212 180 210 233 238 252 258 268 279 283 281 274 258 263 268 269 272 271 271 272 272 273
304 305 306 308 309 312 312 310 310 308 307 307 305 302 301 299 294 288 281 274 266 256 255 234 209 229 250 248 260 269 274 276 273 266 260 257 252 247 240 234 229 220 211 206 207 191 183 184 173 236 292 227 142 129 170 234 241 236 218 237 248 247 248 255 273 284 263 212 216 241 249 254 262 272 277 277 278 276 263 264 267 267 270 270 271 270 271 272
316 320 320 319 321 322 320 317 318 316 314 313 314 311 308 308 302 293 280 262 240 225 242 207 191 208 254 249 261 269 271 270 263 256 251 248 241 232 222 222 216 196 177 163 194 184 169 140 111 143 255 230 192 162 198 226 231 223 218 234 254 256 250 244 252 255 268 281 254 246 257 258 265 266 268 273 276 276 270 269 268 268 268 269 269 269 269 269
331 336 334 333 333 333 331 327 327 327 322 319 322 320 319 326 319 302 285 256 244 247 256 235 223 238 252 260 268 268 266 262 257 250 248 247 235 217 204 194 183 179 173 157 187 185 167 163 162 195 228 227 196 187 210 228 238 238 226 244 250 255 265 254 259 263 237 279 260 244 261 265 263 263 262 268 273 276 274 272 269 267 267 267 268 268 269 269
333 337 340 339 336 338 337 333 335 335 332 332 334 338 351 360 335 303 304 282 271 266 262 258 249 249 255 259 259 262 266 264 257 249 245 241 222 202 190 176 156 176 197 155 138 152 171 189 207 216 229 227 192 198 217 232 249 252 237 258 259 244 262 258 262 273 244 206 259 245 264 268 263 263 261 263 266 265 266 268 269 268 267 266 267 268 270 271
318 322 332 332 330 335 334 336 338 337 341 341 340 351 3 352 323 303 309 290 280 276 268 265 257 251 255 256 253 254 259 262 256 244 236 221 204 196 183 168 168 186 161 134 115 144 202 218 225 227 235 243 183 181 188 218 230 241 239 260 266 246 269 268 257 272 268 175 268 265 265 267 265 263 257 255 252 250 258 263 265 268 268 266 266 267 270 272
304 307 315 316 319 323 326 336 336 336 346 343 339 351 354 343 332 319 314 283 280 280 270 264 256 251 253 254 252 248 245 248 251 244 234 212 192 195 186 164 174 164 135 179 195 198 213 232 232 233 235 214 244 175 143 211 223 218 226 240 261 251 262 266 251 285 303 219 268 286 277 269 262 262 255 247 248 250 258 262 264 265 264 264 264 266 268 270
295 299 304 306 309 310 315 329 330 335 343 344 343 349 350 344 339 330 317 279 275 277 267 261 254 250 251 252 250 242 237 238 243 245 233 210 188 187 195 170 149 150 187 207 212 219 232 243 233 226 210 203 236 224 178 233 247 221 214 215 247 247 242 250 272 333 328 275 285 307 292 277 226 240 252 246 248 250 254 259 263 262 261 263 264 265 265 267
287 290 295 298 300 302 308 316 319 328 334 339 345 347 351 348 341 339 332 298 280 269 261 257 247 248 249 248 243 234 234 238 239 243 233 215 200 186 182 176 168 200 214 215 225 239 249 254 224 186 201 206 216 231 206 215 248 249 214 212 235 246 250 259 286 344 344 300 323 5 309 292 199 208 243 254 245 243 244 250 256 258 260 262 263 265 266 268
282 281 284 288 292 296 302 308 311 322 328 328 336 348 352 353 352 347 349 341 287 258 215 221 224 240 240 237 226 204 218 261 244 235 228 221 213 202 170 175 189 220 208 205 236 249 247 241 214 183 204 199 195 241 221 203 238 272 227 211 230 245 256 260 269 314 283 258 303 54 332 291 279 199 218 235 228 240 244 244 252 257 260 261 263 268 271 273
278 276 277 278 282 288 293 297 299 312 323 316 322 341 350 0 8 357 3 348 285 216 152 181 183 183 213 204 180 162 185 275 226 213 208 207 208 204 204 194 197 223 174 140 271 241 203 222 216 202 201 175 181 241 223 185 209 266 237 194 207 226 237 240 232 222 234 274 304 117 130 276 287 248 191 208 211 236 252 251 255 257 259 263 266 272 276 278
277 278 278 277 279 283 285 287 290 301 307 303 312 328 345 6 6 11 41 311 282 140 126 183 171 188 219 170 172 165 205 270 103 188 195 194 197 197 227 217 189 207 167 152 239 237 165 195 210 189 175 184 208 230 197 158 191 255 189 146 171 195 207 175 168 199 258 349 291 207 136 245 279 269 140 193 208 234 252 248 251 254 259 267 269 271 277 282
272 273 276 279 280 280 281 282 286 292 291 292 302 314 338 355 356 36 88 256 285 94 122 179 169 201 120 150 186 216 352 29 73 165 171 187 196 189 257 229 189 218 219 196 230 253 185 197 196 164 161 213 219 228 163 159 197 220 108 90 74 73 74 100 138 149 69 312 252 194 160 221 278 276 91 70 198 228 244 243 252 258 261 268 270 272 276 284
265 265 266 265 263 268 275 280 284 286 282 283 288 307 350 335 358 65 224 244 300 19 147 159 179 181 119 128 209 260 274 340 73 135 132 158 193 198 314 251 176 194 257 260 250 255 240 130 118 174 197 204 156 77 168 170 180 143 103 57 35 30 31 56 55 84 60 281 240 184 180 190 274 282 132 167 210 222 237 243 265 270 263 265 268 272 278 288
261 261 258 252 251 258 266 272 280 279 269 267 270 273 64 73 90 181 231 242 17 281 136 157 242 100 115 125 229 264 216 282 126 144 147 109 172 206 62 245 123 77 317 291 271 271 248 187 193 207 198 156 100 88 338 87 130 125 99 68 29 334 9 27 346 54 167 265 236 182 181 182 234 260 185 241 257 238 230 227 244 259 261 267 272 275 282 291
259 258 254 250 251 252 254 260 271 271 262 256 252 243 202 169 191 216 241 8 1 241 146 186 231 118 123 105 214 222 179 241 195 154 170 153 162 193 195 202 180 344 299 246 265 304 258 215 212 185 188 172 138 124 342 3 95 119 113 127 129 305 344 348 307 86 214 256 248 172 169 202 244 255 255 267 272 248 225 219 230 239 259 275 283 284 286 290
259 256 253 251 250 250 250 254 261 261 260 253 240 218 112 223 231 218 239 308 264 249 90 117 72 120 131 95 251 224 156 224 197 167 176 140 165 238 250 227 170 209 263 219 313 312 288 264 178 127 239 194 166 169 223 261 172 157 153 157 171 215 238 259 258 259 256 263 285 164 162 249 275 271 235 239 250 248 232 232 242 248 261 272 278 279 282 286
261 258 256 252 250 251 251 253 255 257 259 243 208 109 98 236 251 110 205 246 277 338 11 85 66 56 138 198 245 198 194 246 174 152 170 124 155 262 265 244 196 184 235 230 308 222 254 288 192 168 222 181 180 203 198 148 157 183 158 144 186 195 193 224 225 248 265 275 300 212 175 227 264 281 234 232 260 279 255 245 250 257 263 269 273 274 278 281
261 260 257 254 250 247 249 251 250 254 250 219 169 126 207 231 253 287 221 241 287 318 320 18 78 18 288 264 275 220 212 245 132 127 181 173 196 216 205 216 197 165 155 225 264 164 222 269 228 195 165 160 182 213 176 115 125 216 121 110 237 209 166 225 244 240 266 305 282 231 221 234 246 280 266 252 272 281 267 260 263 271 273 278 281 278 281 285
261 260 256 255 251 246 247 247 246 249 234 196 158 220 223 224 204 185 203 188 179 227 330 333 90 226 286 273 293 269 210 222 172 139 211 212 225 218 208 221 194 179 181 197 224 197 236 268 234 170 172 177 185 219 167 155 190 183 132 184 228 163 143 224 260 264 40 267 257 243 258 273 295 287 278 268 268 266 274 277 272 272 276 285 290 287 291 298
264 262 258 253 250 248 246 242 243 243 222 188 203 231 221 225 192 187 182 142 160 141 102 297 241 203 261 259 273 283 258 252 220 185 217 233 252 212 196 240 207 189 201 211 229 234 240 273 244 161 200 255 324 356 324 185 137 137 179 213 188 93 124 187 250 316 241 248 249 246 258 269 279 274 298 32 327 289 284 290 298 284 273 277 297 303 312 322
268 269 265 258 253 249 242 237 238 231 209 182 238 236 218 214 198 189 185 170 169 155 167 231 238 206 225 243 258 233 206 228 191 192 221 220 238 189 158 235 214 196 217 223 245 288 229 267 274 160 164 285 5 8 302 324 116 144 205 237 116 181 239 171 184 228 235 245 246 233 249 259 251 253 271 294 287 283 275 281 315 293 271 276 303 313 324 331
268 273 272 267 257 245 234 228 223 213 195 184 238 235 215 214 213 202 204 207 194 164 197 226 229 227 221 228 251 230 194 203 188 207 221 214 241 199 138 228 217 212 237 217 216 297 43 244 271 66 116 3 19 119 211 256 302 77 304 311 104 183 200 181 190 196 227 247 253 236 237 245 244 258 272 261 244 248 252 250 255 251 256 281 303 318 326 323
254 259 268 261 249 235 218 210 207 198 190 226 230 230 213 220 240 220 212 211 197 187 215 221 210 223 237 240 251 248 220 202 192 204 219 225 282 276 224 209 129 80 4 171 197 282 33 258 262 293 316 285 280 210 197 203 192 157 220 240 229 212 203 261 235 176 234 254 260 255 246 243 249 270 275 264 221 220 229 217 226 248 270 293 304 311 311 306
221 236 263 233 219 213 195 193 198 192 203 239 233 240 245 237 249 224 214 214 217 221 214 195 206 222 239 249 244 222 210 215 209 211 221 224 243 256 243 163 144 120 56 34 338 236 167 249 262 281 274 258 255 210 174 176 169 170 204 228 234 232 247 271 253 219 225 248 253 259 260 254 255 289 294 285 208 203 215 207 238 275 288 294 295 295 297 298
206 230 249 205 206 203 187 184 202 206 214 230 235 240 237 238 240 219 213 215 222 237 228 213 226 223 231 248 244 209 196 222 215 211 226 224 212 217 215 175 175 169 129 182 233 199 149 115 209 253 250 255 267 255 205 207 211 212 220 227 243 237 217 238 248 240 236 244 249 261 263 250 233 276 298 303 288 257 236 225 238 265 272 279 285 289 295 298
216 236 226 191 207 208 196 194 221 210 219 246 249 243 233 239 238 210 204 208 213 223 224 216 216 224 230 231 233 222 205 214 213 212 230 236 217 222 230 218 193 159 98 247 234 184 115 99 218 245 253 261 269 271 262 237 202 228 236 217 224 231 226 235 247 259 262 252 252 263 259 235 202 260 282 299 301 296 282 273 274 275 280 286 287 289 294 297
244 255 242 223 214 209 202 210 226 220 237 251 250 244 240 242 238 231 214 192 195 196 213 225 215 224 229 215 215 220 213 220 229 226 224 233 233 224 229 232 222 192 192 215 201 168 188 196 209 247 270 268 264 271 283 268 187 226 240 225 224 227 233 246 255 263 261 242 237 254 258 242 245 286 298 303 299 297 293 291 290 288 293 297 294 293 296 300
275 270 251 235 223 221 226 234 239 246 244 246 253 251 250 251 240 239 237 222 214 202 204 243 231 218 219 221 233 232 221 224 242 244 218 231 263 224 236 252 243 226 231 243 237 136 225 236 221 243 260 259 263 263 261 237 189 227 248 232 229 224 226 237 244 240 243 229 224 242 257 255 255 278 286 282 283 285 286 289 290 290 293 297 302 313 325 327
283 276 259 240 224 229 242 248 254 268 247 247 255 240 241 248 247 239 234 231 229 225 233 253 255 263 231 229 253 254 240 226 231 243 235 249 265 318 348 338 321 324 315 303 315 349 228 258 232 240 251 251 262 268 271 280 248 229 251 237 230 228 228 232 239 242 249 249 241 240 253 262 259 258 265 264 266 272 277 283 287 291 299 313 339 7 20 18
280 257 226 262 227 227 239 246 252 255 248 254 259 239 242 246 254 242 220 218 221 220 231 245 231 235 235 230 243 252 247 236 237 248 254 271 293 320 342 357 16 15 9 350 347 356 214 272 245 244 253 250 259 270 274 279 270 256 259 253 243 238 231 230 237 243 249 259 259 251 256 264 260 251 257 261 263 266 272 282 290 303 328 2 27 33 31 26
219 271 250 307 268 230 231 251 270 274 260 259 261 277 268 260 265 254 226 243 227 208 217 251 233 233 243 251 252 252 247 245 251 256 261 330 357 331 339 358 48 28 27 9 357 10 211 263 251 249 258 254 258 265 265 268 268 262 259 256 253 250 245 242 245 246 246 253 262 264 262 264 266 264 262 267 282 291 307 333 353 9 19 25 28 24 21 18
237 280 283 295 293 277 290 308 322 325 285 276 267 253 260 261 263 260 244 310 292 207 220 240 246 293 325 321 290 244 242 250 252 290 60 18 340 323 339 310 11 35 29 0 339 320 237 274 275 268 274 271 268 269 268 270 271 268 263 258 255 254 251 252 253 255 256 258 263 267 264 263 273 295 307 337 1 8 16 22 28 29 22 19 19 17 13 9
251 279 310 320 302 287 292 293 299 311 292 280 260 238 248 252 260 269 253 235 254 249 231 226 43 43 69 52 345 251 298 330 298 7 52 29 2 21 8 304 303 352 359 341 311 311 296 313 326 316 299 289 283 277 275 275 274 277 278 274 270 266 261 261 264 267 269 267 267 268 266 267 305 351 355 10 17 21 26 27 28 24 17 15 13 10 6 3
252 266 304 319 299 283 292 293 289 289 269 245 237 264 269 258 283 318 317 272 287 96 97 80 38 17 158 175 267 200 158 59 87 278 277 208 267 282 261 270 296 318 325 292 234 321 320 296 316 317 292 284 288 280 280 289 289 287 286 281 275 270 266 264 264 264 269 273 275 277 276 285 347 347 348 8 14 15 16 24 28 19 14 13 7 4 2 359
255 266 274 272 270 270 280 343 333 277 256 241 334 335 307 341 11 3 324 31 82 90 69 43 10 339 359 304 294 126 90 329 290 282 278 251 248 252 242 239 245 251 276 289 264 257 264 273 293 294 286 287 285 284 292 303 294 277 272 272 266 262 265 266 263 267 283 292 284 282 304 1 344 345 358 3 8 7 353 357 25 19 10 8 4 0 357 356
Height
1558 1558 1558 1558 1557 1557 1556 1556 1555 1555 1555 1554 1553 1553 1552 1552 1551 1551 1550 1549 1549 1548 1547 1547 1546 1545 1545 1544 1543 1543 1542 1541 1540 1539 1539 1539 1539 1539 1539 1539 1540 1540 1540 1541 1541 1541 1541 1541 1541 1542 1542 1542 1542 1542 1543 1543 1543 1544 1546 1550 1549 1549 1546 1538 1536 1534 1531 1529 1526 1525 1525 1526 1525 1523 1522 1521 1519 1518 1517 1516 1516 1515 1514 1513 1512 1511 1511 1511
1558 1558 1557 1557 1557 1556 1556 1556 1555 1555 1554 1554 1553 1553 1552 1552 1551 1550 1550 1549 1549 1548 1548 1547 1546 1545 1545 1544 1543 1542 1541 1540 1539 1538 1537 1537 1537 1537 1537 1538 1538 1539 1539 1540 1540 1540 1541 1541 1541 1541 1541 1542 1542 1542 1542 1542 1543 1544 1547 1549 1545 1543 1538 1532 1531 1530 1529 1528 1525 1525 1525 1525 1524 1522 1522 1520 1517 1517 1516 1514 1515 1514 1512 1511 1510 1510 1510 1509
1557 1557 1557 1557 1556 1556 1556 1555 1555 1554 1554 1553 1553 1552 1552 1551 1551 1550 1550 1549 1549 1548 1548 1547 1546 1545 1545 1544 1543 1542 1541 1540 1538 1536 1536 1536 1536 1536 1537 1536 1537 1538 1538 1539 1539 1539 1540 1540 1540 1540 1541 1541 1541 1542 1541 1542 1542 1542 1545 1547 1540 1535 1533 1529 1529 1528 1527 1526 1525 1525 1524 1524 1522 1521 1520 1517 1515 1514 1513 1512 1513 1511 1509 1509 1508 1508 1508 1507
1557 1556 1556 1556 1556 1555 1555 1555 1554 1554 1554 1553 1553 1552 1551 1551 1550 1550 1549 1549 1548 1548 1547 1547 1546 1545 1544 1543 1543 1542 1540 1539 1536 1536 1536 1536 1536 1536 1536 1535 1536 1536 1537 1537 1538 1538 1538 1539 1539 1539 1540 1540 1540 1541 1541 1540 1540 1540 1541 1540 1533 1532 1532 1527 1526 1526 1526 1526 1525 1524 1524 1523 1520 1520 1517 1516 1516 1510 1507 1508 1508 1508 1506 1506 1507 1506 1506 1505
1556 1556 1555 1555 1555 1555 1554 1554 1553 1553 1553 1552 1552 1551 1551 1550 1549 1549 1549 1548 1548 1547 1547 1546 1546 1545 1544 1543 1542 1541 1541 1540 1536 1536 1536 1536 1535 1535 1535 1534 1534 1534 1535 1536 1536 1537 1537 1538 1538 1539 1539 1539 1539 1540 1538 1537 1538 1538 1535 1532 1530 1531 1530 1524 1525 1526 1525 1525 1524 1523 1523 1520 1518 1517 1514 1516 1515 1504 1500 1505 1504 1504 1504 1504 1505 1504 1503 1502
1555 1555 1554 1554 1554 1554 1553 1553 1553 1552 1552 1551 1551 1550 1550 1549 1549 1548 1548 1547 1547 1547 1546 1546 1545 1544 1543 1543 1542 1541 1542 1541 1536 1536 1536 1535 1535 1534 1534 1534 1533 1533 1534 1535 1535 1536 1536 1537 1537 1538 1538 1537 1538 1537 1535 1535 1536 1535 1531 1529 1528 1529 1527 1522 1524 1524 1524 1524 1523 1522 1521 1518 1517 1513 1510 1512 1508 1498 1498 1503 1502 1501 1501 1501 1501 1501 1499 1499
1554 1553 1553 1553 1553 1552 1552 1552 1551 1551 1551 1550 1550 1549 1549 1548 1548 1547 1546 1546 1546 1545 1545 1545 1544 1544 1543 1542 1541 1540 1541 1539 1536 1536 1535 1535 1534 1534 1534 1533 1533 1533 1533 1533 1534 1535 1535 1536 1536 1536 1537 1536 1536 1534 1534 1534 1534 1534 1530 1528 1526 1526 1524 1521 1522 1522 1522 1522 1520 1521 1519 1517 1515 1511 1507 1505 1499 1496 1498 1499 1499 1498 1498 1498 1497 1497 1496 1495
1552 1552 1552 1552 1551 1551 1551 1550 1550 1550 1549 1549 1549 1548 1548 1547 1546 1546 1545 1545 1544 1544 1544 1544 1543 1542 1542 1541 1539 1539 1538 1536 1535 1535 1534 1534 1534 1533 1533 1532 1532 1532 1532 1533 1533 1534 1535 1535 1535 1535 1535 1535 1534 1533 1533 1533 1534 1533 1529 1526 1525 1525 1522 1520 1521 1520 1520 1519 1518 1519 1516 1512 1511 1510 1505 1497 1492 1493 1496 1495 1495 1495 1494 1494 1493 1493 1493 1493
1551 1551 1551 1550 1550 1550 1549 1549 1549 1548 1548 1548 1547 1547 1546 1546 1545 1544 1544 1544 1543 1543 1543 1543 1542 1541 1541 1539 1538 1537 1534 1534 1534 1534 1533 1533 1532 1532 1532 1531 1532 1531 1531 1532 1532 1533 1533 1533 1534 1534 1534 1533 1533 1532 1532 1533 1532 1529 1526 1525 1524 1523 1520 1519 1518 1518 1518 1517 1517 1517 1513 1508 1508 1510 1501 1489 1488 1491 1493 1493 1492 1492 1491 1490 1490 1490 1490 1489
1549 1549 1549 1549 1548 1548 1547 1547 1547 1547 1546 1546 1546 1545 1545 1544 1543 1543 1542 1542 1542 1541 1541 1541 1540 1540 1539 1538 1538 1534 1530 1532 1533 1532 1532 1532 1531 1531 1530 1530 1530 1530 1530 1530 1531 1531 1531 1532 1533 1534 1534 1532 1532 1531 1531 1532 1529 1526 1526 1524 1522 1521 1518 1517 1515 1515 1516 1514 1513 1514 1511 1505 1507 1510 1496 1482 1488 1491 1490 1490 1490 1490 1488 1487 1487 1487 1487 1487
1548 1548 1547 1547 1547 1546 1546 1545 1545 1545 1544 1544 1544 1543 1543 1542 1541 1541 1540 1540 1540 1540 1539 1539 1539 1538 1537 1536 1534 1530 1528 1531 1531 1530 1531 1529 1529 1529 1528 1529 1529 1529 1529 1529 1530 1530 1531 1532 1533 1533 1532 1531 1530 1530 1529 1528 1527 1526 1525 1523 1520 1520 1516 1512 1513 1512 1513 1511 1508 1510 1509 1505 1506 1507 1492 1481 1486 1489 1488 1488 1487 1487 1486 1485 1485 1484 1485 1483
1546 1546 1546 1545 1545 1544 1544 1543 1543 1542 1542 1542 1541 1541 1540 1539 1539 1538 1538 1538 1537 1537 1537 1537 1537 1536 1536 1533 1528 1526 1527 1529 1528 1528 1528 1527 1526 1526 1526 1527 1527 1527 1527 1528 1529 1529 1530 1531 1532 1532 1531 1531 1529 1529 1528 1526 1527 1526 1526 1524 1518 1519 1514 1507 1508 1509 1509 1508 1504 1508 1510 1505 1502 1496 1485 1482 1485 1486 1487 1485 1484 1484 1483 1482 1482 1482 1481 1479
1544 1544 1543 1543 1543 1542 1542 1541 1541 1540 1539 1539 1539 1538 1538 1537 1536 1536 1535 1535 1535 1535 1534 1535 1534 1534 1534 1528 1521 1523 1526 1525 1525 1526 1525 1525 1524 1523 1524 1524 1525 1526 1526 1526 1527 1527 1529 1529 1530 1530 1530 1530 1529 1528 1527 1526 1527 1525 1526 1526 1521 1522 1514 1502 1505 1507 1506 1506 1503 1507 1510 1502 1494 1485 1480 1483 1484 1485 1485 1482 1481 1481 1480 1480 1479 1478 1478 1477
1542 1542 1541 1541 1540 1540 1540 1539 1539 1538 1537 1537 1536 1536 1535 1535 1534 1533 1533 1533 1532 1532 1532 1532 1532 1532 1531 1524 1519 1521 1522 1522 1522 1522 1523 1522 1521 1521 1521 1522 1523 1523 1524 1525 1526 1526 1527 1528 1529 1529 1529 1529 1528 1527 1528 1528 1527 1526 1527 1527 1526 1528 1515 1500 1505 1507 1505 1504 1501 1506 1509 1501 1489 1479 1477 1482 1482 1482 1481 1479 1478 1478 1477 1477 1475 1474 1474 1474
1540 1540 1539 1539 1538 1538 1537 1537 1536 1535 1535 1534 1533 1533 1533 1532 1531 1530 1530 1530 1530 1530 1529 1530 1529 1530 1528 1521 1518 1519 1519 1519 1518 1519 1520 1519 1519 1518 1518 1520 1521 1521 1523 1523 1524 1525 1526 1527 1528 1528 1527 1527 1527 1528 1530 1530 1527 1528 1529 1527 1528 1530 1518 1505 1503 1504 1502 1500 1501 1505 1504 1498 1490 1478 1474 1479 1480 1479 1478 1476 1475 1475 1474 1473 1472 1471 1469 1469
1538 1538 1537 1537 1537 1536 1535 1535 1534 1533 1532 1531 1531 1530 1530 1529 1528 1528 1528 1527 1527 1527 1527 1527 1527 1528 1526 1520 1517 1516 1515 1515 1515 1517 1517 1516 1516 1516 1516 1518 1518 1519 1520 1521 1522 1524 1525 1526 1526 1527 1526 1525 1527 1529 1532 1534 1530 1529 1531 1528 1527 1527 1523 1513 1502 1497 1498 1499 1500 1501 1497 1491 1486 1478 1474 1477 1477 1477 1476 1474 1472 1471 1470 1470 1469 1468 1466 1464
1536 1536 1536 1535 1535 1534 1534 1533 1532 1531 1530 1529 1528 1527 1527 1526 1525 1525 1525 1524 1524 1524 1525 1525 1524 1526 1523 1517 1515 1512 1511 1512 1513 1513 1513 1513 1514 1514 1514 1515 1516 1517 1518 1520 1521 1522 1523 1525 1526 1526 1525 1525 1526 1528 1535 1539 1532 1528 1531 1531 1528 1525 1523 1517 1503 1495 1496 1498 1498 1498 1495 1487 1480 1477 1475 1474 1474 1475 1474 1470 1468 1468 1466 1465 1465 1464 1462 1459
1535 1535 1534 1534 1533 1533 1532 1531 1530 1529 1528 1527 1526 1525 1524 1523 1523 1522 1521 1521 1522 1522 1523 1522 1524 1526 1519 1512 1512 1509 1508 1510 1510 1510 1510 1510 1511 1511 1512 1513 1514 1516 1517 1519 1519 1520 1522 1523 1524 1525 1524 1524 1525 1527 1534 1533 1525 1523 1525 1525 1525 1523 1521 1519 1509 1496 1494 1496 1497 1498 1495 1487 1481 1479 1476 1472 1471 1471 1469 1466 1464 1463 1462 1461 1460 1458 1456 1455
1534 1534 1533 1533 1532 1531 1530 1530 1529 1527 1527 1526 1525 1524 1522 1521 1520 1519 1519 1519 1519 1519 1520 1518 1518 1519 1513 1507 1508 1508 1507 1508 1507 1507 1507 1507 1508 1509 1510 1512 1513 1514 1516 1518 1518 1518 1520 1522 1525 1526 1522 1518 1519 1523 1523 1517 1514 1517 1518 1518 1519 1518 1515 1513 1506 1496 1494 1497 1497 1497 1491 1484 1481 1479 1475 1470 1468 1467 1463 1460 1460 1459 1458 1456 1454 1451 1450 1449
1533 1533 1532 1532 1531 1530 1529 1529 1528 1526 1525 1524 1523 1522 1521 1521 1519 1518 1517 1517 1516 1514 1514 1513 1511 1510 1507 1506 1507 1507 1506 1506 1505 1505 1505 1505 1506 1507 1509 1511 1512 1514 1515 1515 1516 1517 1518 1520 1522 1519 1511 1506 1512 1515 1511 1508 1511 1515 1518 1518 1517 1517 1512 1506 1499 1493 1495 1497 1491 1489 1484 1478 1478 1475 1471 1468 1466 1464 1458 1454 1454 1453 1453 1450 1448 1444 1443 1443
1533 1532 1532 1531 1530 1530 1529 1528 1527 1526 1524 1523 1522 1521 1521 1522 1521 1519 1517 1514 1512 1512 1510 1510 1510 1507 1505 1506 1506 1505 1505 1503 1503 1502 1503 1504 1505 1506 1507 1509 1511 1513 1513 1513 1516 1517 1517 1519 1516 1507 1499 1501 1507 1509 1508 1511 1514 1515 1517 1517 1517 1517 1508 1498 1496 1491 1494 1497 1488 1485 1482 1474 1473 1471 1467 1466 1464 1460 1453 1450 1449 1447 1447 1444 1441 1439 1436 1436
1533 1532 1531 1531 1530 1529 1529 1528 1527 1526 1525 1523 1522 1521 1522 1522 1521 1520 1518 1513 1508 1508 1507 1506 1506 1504 1502 1503 1503 1504 1504 1501 1500 1499 1501 1502 1503 1504 1505 1507 1509 1510 1512 1514 1515 1517 1518 1517 1510 1500 1497 1503 1506 1507 1511 1513 1514 1515 1517 1518 1516 1514 1504 1494 1494 1491 1494 1496 1486 1482 1479 1471 1469 1465 1462 1460 1456 1453 1450 1447 1445 1442 1441 1438 1435 1433 1431 1429
1532 1531 1532 1531 1530 1529 1528 1528 1527 1526 1525 1524 1523 1522 1521 1521 1520 1519 1518 1515 1506 1502 1502 1500 1499 1498 1497 1498 1498 1500 1500 1498 1497 1497 1499 1500 1501 1503 1503 1505 1508 1509 1512 1512 1510 1513 1515 1510 1502 1498 1502 1505 1505 1507 1511 1511 1513 1514 1514 1516 1512 1508 1504 1495 1491 1490 1494 1494 1485 1483 1476 1465 1464 1459 1454 1452 1446 1447 1449 1443 1441 1439 1435 1431 1428 1428 1427 1424
1531 1531 1531 1530 1530 1529 1528 1528 1527 1526 1525 1524 1523 1522 1521 1520 1519 1518 1517 1513 1504 1498 1495 1494 1494 1492 1491 1493 1493 1495 1495 1494 1495 1494 1496 1498 1499 1502 1502 1503 1507 1509 1509 1505 1503 1503 1502 1499 1498 1500 1503 1504 1505 1506 1509 1510 1510 1508 1508 1511 1505 1499 1500 1496 1492 1493 1494 1491 1487 1486 1470 1448 1450 1452 1444 1442 1443 1445 1445 1440 1435 1433 1428 1424 1423 1423 1422 1420
1531 1531 1530 1530 1530 1528 1528 1528 1527 1527 1525 1524 1523 1522 1521 1520 1519 1518 1516 1512 1503 1495 1491 1489 1489 1487 1487 1489 1490 1492 1493 1492 1492 1492 1494 1495 1497 1500 1501 1502 1504 1504 1503 1502 1504 1502 1498 1497 1497 1499 1501 1503 1504 1505 1507 1507 1503 1501 1503 1502 1494 1491 1494 1495 1496 1499 1499 1493 1490 1492 1475 1440 1431 1443 1441 1438 1442 1441 1439 1437 1430 1425 1422 1420 1419 1418 1417 1416
1529 1529 1529 1529 1528 1527 1528 1527 1527 1527 1524 1524 1524 1521 1521 1519 1519 1518 1516 1515 1504 1490 1487 1487 1486 1485 1484 1486 1488 1490 1494 1490 1488 1490 1492 1493 1495 1496 1499 1500 1499 1499 1499 1501 1504 1501 1497 1495 1495 1497 1499 1501 1505 1506 1502 1502 1500 1498 1495 1491 1490 1493 1496 1496 1498 1502 1500 1495 1492 1495 1491 1462 1431 1432 1440 1436 1438 1437 1433 1432 1427 1421 1418 1416 1417 1415 1413 1413
1528 1528 1527 1527 1526 1526 1527 1526 1526 1526 1524 1525 1522 1522 1522 1519 1520 1517 1515 1519 1504 1483 1483 1485 1484 1484 1483 1485 1486 1489 1492 1488 1485 1488 1489 1491 1493 1494 1496 1496 1496 1496 1496 1500 1502 1495 1491 1492 1494 1496 1497 1500 1505 1501 1492 1495 1500 1495 1489 1487 1489 1492 1494 1495 1498 1502 1499 1495 1496 1492 1495 1489 1449 1424 1431 1431 1432 1434 1429 1428 1424 1418 1416 1414 1416 1415 1411 1410
1525 1526 1525 1525 1525 1525 1525 1525 1525 1525 1525 1524 1522 1523 1521 1519 1522 1516 1521 1527 1500 1477 1480 1482 1481 1483 1482 1485 1486 1486 1488 1485 1485 1487 1487 1489 1491 1492 1493 1492 1493 1493 1493 1497 1496 1489 1487 1489 1491 1493 1498 1500 1497 1488 1483 1491 1495 1490 1489 1490 1490 1492 1494 1496 1496 1500 1503 1499 1499 1493 1493 1496 1458 1422 1428 1433 1433 1435 1429 1424 1419 1415 1414 1413 1415 1413 1409 1409
1523 1523 1523 1524 1523 1523 1523 1523 1523 1523 1523 1523 1523 1523 1521 1522 1521 1517 1531 1529 1492 1473 1481 1481 1480 1483 1482 1485 1486 1485 1486 1485 1486 1487 1487 1489 1490 1491 1492 1491 1493 1493 1492 1492 1489 1485 1486 1486 1487 1490 1494 1492 1485 1483 1484 1488 1488 1487 1491 1491 1492 1495 1495 1499 1496 1496 1502 1495 1491 1492 1491 1489 1454 1420 1429 1438 1434 1431 1423 1419 1417 1413 1414 1412 1412 1411 1408 1408
1521 1521 1522 1523 1522 1521 1520 1521 1522 1522 1522 1523 1522 1522 1522 1522 1520 1525 1536 1518 1484 1478 1482 1479 1481 1483 1482 1485 1487 1486 1487 1486 1486 1487 1488 1489 1490 1491 1491 1491 1492 1492 1492 1492 1487 1484 1484 1485 1487 1485 1484 1481 1481 1486 1487 1486 1487 1487 1490 1489 1491 1496 1494 1500 1498 1495 1500 1488 1477 1479 1480 1483 1459 1425 1427 1433 1426 1424 1419 1416 1416 1414 1413 1410 1409 1409 1407 1407
1518 1519 1520 1520 1520 1519 1518 1519 1520 1520 1522 1522 1521 1522 1522 1521 1523 1531 1523 1496 1482 1482 1479 1479 1483 1483 1483 1486 1486 1486 1487 1486 1486 1487 1487 1489 1489 1491 1492 1491 1492 1493 1493 1491 1487 1484 1484 1485 1483 1478 1476 1478 1480 1485 1486 1488 1488 1487 1489 1489 1490 1494 1495 1500 1500 1500 1501 1482 1468 1469 1473 1480 1461 1426 1423 1425 1419 1421 1419 1415 1413 1412 1412 1408 1407 1407 1406 1406
1516 1517 1517 1518 1517 1517 1517 1517 1517 1519 1520 1519 1521 1521 1521 1524 1524 1518 1501 1485 1484 1482 1476 1480 1483 1482 1485 1486 1485 1486 1486 1485 1485 1485 1486 1489 1490 1489 1489 1488 1488 1491 1489 1486 1484 1481 1479 1477 1475 1473 1474 1476 1478 1482 1488 1489 1488 1489 1491 1492 1496 1499 1499 1499 1499 1501 1495 1476 1468 1474 1476 1472 1446 1419 1421 1421 1415 1416 1415 1413 1412 1410 1411 1408 1407 1407 1406 1405
1513 1514 1515 1515 1514 1515 1515 1515 1516 1517 1518 1518 1520 1520 1524 1527 1514 1500 1494 1488 1484 1479 1477 1481 1482 1483 1485 1484 1483 1485 1485 1483 1483 1485 1485 1488 1491 1487 1487 1487 1486 1487 1485 1486 1485 1478 1472 1469 1471 1474 1472 1471 1473 1478 1483 1482 1484 1488 1486 1488 1495 1499 1500 1498 1496 1496 1486 1470 1471 1479 1476 1462 1435 1417 1416 1412 1408 1409 1410 1411 1411 1409 1410 1408 1407 1407 1405 1404
1510 1511 1511 1511 1512 1512 1513 1514 1515 1515 1516 1517 1518 1521 1526 1522 1503 1494 1496 1492 1484 1481 1481 1482 1483 1485 1484 1483 1482 1482 1482 1481 1480 1484 1485 1488 1491 1487 1484 1485 1486 1485 1485 1487 1486 1481 1478 1469 1465 1467 1464 1463 1466 1466 1467 1469 1476 1481 1477 1479 1483 1482 1484 1485 1482 1479 1470 1463 1472 1481 1471 1450 1429 1415 1410 1406 1405 1407 1407 1408 1408 1408 1408 1407 1407 1406 1405 1403
1507 1507 1507 1507 1508 1509 1510 1512 1512 1513 1515 1515 1517 1520 1518 1508 1498 1497 1496 1490 1487 1485 1483 1483 1484 1485 1485 1483 1482 1480 1479 1478 1479 1482 1484 1485 1485 1481 1478 1478 1481 1484 1486 1488 1483 1481 1481 1467 1457 1459 1458 1458 1460 1458 1460 1465 1472 1477 1477 1478 1476 1470 1471 1474 1470 1465 1465 1467 1469 1469 1457 1436 1420 1410 1406 1408 1407 1405 1406 1405 1406 1407 1406 1406 1406 1404 1404 1403
1504 1504 1504 1503 1503 1506 1508 1509 1510 1511 1511 1513 1517 1515 1502 1492 1492 1494 1490 1487 1488 1486 1485 1486 1485 1486 1487 1483 1482 1481 1478 1478 1480 1481 1482 1483 1480 1477 1476 1473 1474 1477 1478 1480 1476 1474 1475 1463 1454 1459 1459 1458 1459 1457 1459 1461 1465 1474 1478 1473 1468 1466 1467 1470 1469 1465 1471 1474 1457 1446 1442 1430 1420 1408 1400 1405 1406 1404 1406 1404 1404 1405 1404 1405 1404 1403 1403 1403
1500 1501 1500 1499 1500 1503 1505 1506 1508 1508 1509 1511 1511 1501 1489 1485 1485 1485 1484 1484 1485 1485 1487 1490 1487 1484 1486 1484 1482 1482 1481 1480 1481 1480 1480 1482 1476 1471 1472 1469 1468 1469 1466 1467 1467 1465 1465 1459 1453 1456 1457 1458 1460 1459 1459 1460 1460 1467 1470 1463 1462 1467 1466 1470 1475 1470 1472 1470 1449 1435 1431 1427 1426 1414 1399 1402 1404 1402 1404 1404 1404 1405 1403 1402 1401 1401 1402 1401
1497 1498 1496 1494 1497 1500 1501 1504 1505 1505 1507 1508 1503 1491 1483 1482 1480 1480 1481 1482 1483 1483 1486 1490 1486 1481 1484 1485 1482 1482 1483 1482 1482 1481 1479 1478 1471 1464 1465 1464 1463 1464 1462 1463 1465 1463 1464 1462 1453 1452 1457 1459 1460 1461 1461 1460 1460 1461 1462 1460 1462 1467 1466 1468 1474 1470 1467 1462 1447 1436 1429 1424 1423 1411 1399 1401 1401 1400 1403 1403 1404 1404 1402 1401 1400 1400 1400 1398
1495 1496 1492 1490 1494 1496 1497 1500 1501 1503 1504 1502 1496 1488 1481 1479 1477 1477 1478 1479 1481 1483 1483 1484 1482 1480 1481 1482 1480 1480 1481 1481 1481 1481 1479 1476 1470 1462 1462 1462 1461 1463 1463 1465 1468 1465 1465 1467 1459 1453 1457 1461 1461 1461 1460 1458 1460 1462 1462 1462 1463 1464 1463 1463 1464 1460 1457 1452 1443 1435 1428 1420 1411 1400 1396 1399 1400 1399 1401 1400 1401 1401 1400 1400 1399 1398 1397 1397
1494 1495 1490 1488 1492 1492 1494 1497 1498 1499 1497 1491 1487 1483 1478 1477 1476 1476 1477 1478 1478 1479 1479 1479 1479 1480 1477 1476 1477 1477 1478 1478 1478 1480 1479 1475 1470 1464 1461 1461 1461 1464 1465 1465 1467 1466 1467 1470 1466 1457 1458 1461 1459 1456 1454 1453 1457 1461 1462 1462 1462 1461 1460 1460 1459 1455 1453 1450 1445 1440 1432 1418 1405 1397 1393 1395 1398 1398 1398 1398 1399 1399 1398 1398 1398 1398 1398 1399
1493 1493 1488 1487 1490 1490 1492 1495 1494 1492 1490 1484 1481 1478 1477 1476 1475 1474 1475 1476 1476 1475 1476 1476 1476 1477 1475 1474 1475 1475 1476 1477 1474 1476 1476 1472 1471 1468 1462 1461 1462 1465 1468 1468 1468 1469 1469 1471 1470 1465 1460 1458 1453 1451 1452 1453 1454 1457 1460 1459 1457 1457 1459 1462 1459 1451 1449 1450 1444 1441 1434 1418 1406 1399 1393 1392 1397 1398 1398 1399 1398 1398 1398 1398 1399 1400 1400 1401
1491 1489 1486 1486 1487 1487 1489 1490 1488 1486 1485 1480 1476 1475 1475 1474 1472 1473 1473 1474 1475 1474 1474 1475 1474 1474 1473 1472 1472 1472 1474 1474 1471 1472 1471 1468 1467 1465 1460 1459 1461 1463 1467 1468 1467 1466 1467 1471 1474 1470 1463 1456 1450 1449 1452 1453 1454 1457 1457 1456 1455 1454 1455 1458 1454 1446 1445 1444 1438 1437 1434 1418 1405 1402 1397 1394 1395 1396 1398 1399 1397 1397 1398 1398 1399 1399 1400 1400
1487 1485 1484 1484 1485 1486 1486 1485 1483 1482 1480 1476 1474 1474 1474 1472 1471 1471 1471 1472 1473 1473 1473 1473 1472 1472 1471 1470 1470 1471 1472 1471 1468 1466 1466 1463 1461 1459 1458 1458 1460 1462 1465 1466 1463 1462 1465 1470 1471 1467 1462 1457 1452 1449 1449 1450 1454 1456 1454 1452 1452 1450 1447 1447 1445 1442 1442 1441 1438 1438 1431 1415 1405 1405 1404 1401 1398 1395 1394 1394 1395 1395 1394 1395 1397 1398 1398 1398
1485 1484 1483 1483 1484 1484 1483 1480 1479 1478 1477 1475 1475 1474 1473 1471 1470 1469 1469 1470 1470 1470 1471 1470 1469 1468 1468 1467 1468 1468 1469 1469 1465 1461 1462 1462 1458 1456 1456 1457 1458 1460 1462 1461 1459 1460 1462 1463 1464 1464 1461 1456 1451 1448 1447 1449 1451 1450 1446 1443 1443 1443 1444 1443 1443 1445 1443 1439 1440 1439 1427 1414 1409 1407 1406 1405 1401 1397 1393 1391 1391 1391 1392 1393 1393 1394 1396 1396
1485 1483 1480 1480 1482 1481 1478 1475 1476 1476 1476 1475 1474 1472 1472 1470 1466 1465 1466 1467 1467 1467 1467 1467 1466 1466 1465 1466 1466 1465 1466 1468 1466 1461 1459 1460 1457 1455 1456 1457 1457 1457 1457 1457 1457 1458 1458 1455 1456 1460 1459 1454 1448 1441 1438 1440 1444 1444 1441 1439 1438 1438 1440 1440 1440 1443 1439 1432 1432 1430 1421 1413 1411 1410 1408 1407 1404 1400 1396 1391 1388 1386 1389 1392 1393 1393 1394 1395
1484 1482 1479 1478 1479 1478 1475 1473 1475 1475 1475 1475 1473 1470 1470 1468 1464 1463 1464 1465 1465 1465 1465 1465 1465 1465 1465 1465 1466 1465 1464 1465 1464 1461 1458 1458 1457 1456 1457 1457 1458 1457 1457 1457 1458 1459 1460 1455 1450 1451 1449 1446 1441 1433 1430 1433 1437 1439 1438 1436 1435 1434 1434 1435 1435 1432 1428 1423 1418 1416 1414 1411 1410 1411 1409 1405 1404 1402 1397 1393 1388 1385 1388 1392 1394 1395 1395 1394
1483 1482 1479 1478 1477 1475 1473 1474 1475 1474 1473 1474 1471 1467 1466 1465 1463 1462 1462 1462 1462 1462 1463 1463 1464 1465 1463 1463 1464 1463 1460 1460 1461 1460 1459 1459 1459 1458 1457 1457 1458 1458 1457 1458 1459 1460 1461 1456 1449 1446 1443 1441 1438 1434 1432 1433 1433 1433 1434 1433 1434 1433 1431 1433 1430 1422 1420 1418 1410 1406 1408 1406 1406 1408 1405 1400 1400 1399 1396 1396 1394 1393 1395 1396 1396 1396 1395 1395
1482 1480 1477 1478 1477 1475 1473 1474 1475 1474 1473 1473 1471 1467 1466 1465 1464 1463 1462 1460 1460 1461 1462 1462 1462 1462 1461 1462 1463 1463 1460 1459 1460 1460 1460 1464 1465 1463 1460 1458 1459 1459 1458 1460 1460 1461 1462 1456 1447 1444 1441 1438 1437 1435 1433 1431 1429 1429 1431 1430 1430 1430 1428 1427 1421 1414 1416 1415 1406 1403 1405 1401 1399 1400 1399 1398 1400 1400 1401 1402 1402 1402 1403 1402 1400 1399 1399 1398
1480 1478 1477 1477 1477 1475 1474 1474 1474 1474 1474 1473 1471 1469 1467 1465 1463 1462 1462 1461 1460 1460 1460 1461 1462 1463 1464 1464 1464 1465 1464 1461 1461 1463 1466 1469 1470 1468 1466 1463 1460 1459 1461 1462 1461 1461 1461 1454 1446 1446 1444 1440 1439 1437 1435 1433 1430 1428 1427 1427 1427 1425 1422 1418 1412 1410 1412 1408 1402 1404 1403 1399 1401 1405 1406 1406 1407 1407 1408 1407 1406 1407 1408 1406 1405 1404 1403 1402
1479 1478 1478 1477 1476 1474 1474 1474 1474 1474 1474 1473 1471 1468 1466 1464 1463 1461 1461 1461 1461 1459 1459 1462 1465 1467 1467 1467 1467 1468 1467 1464 1464 1466 1469 1472 1470 1470 1470 1467 1462 1460 1462 1463 1462 1460 1460 1455 1448 1449 1450 1445 1440 1438 1437 1437 1435 1431 1428 1426 1425 1423 1419 1415 1412 1412 1410 1405 1403 1403 1399 1399 1408 1416 1417 1414 1412 1409 1409 1410 1411 1412 1411 1410 1408 1406 1405 1404
1477 1478 1478 1479 1477 1474 1474 1474 1474 1474 1473 1471 1469 1467 1464 1464 1464 1463 1462 1460 1460 1460 1461 1465 1468 1468 1468 1468 1468 1468 1468 1468 1468 1468 1469 1472 1471 1471 1471 1469 1466 1464 1462 1461 1461 1461 1461 1458 1453 1454 1452 1444 1439 1438 1438 1436 1435 1434 1431 1426 1423 1421 1418 1415 1412 1410 1409 1405 1402 1400 1401 1409 1419 1421 1417 1415 1413 1413 1413 1414 1415 1415 1413 1412 1410 1408 1407 1405
1477 1477 1478 1479 1477 1474 1474 1475 1475 1474 1472 1469 1468 1468 1467 1467 1467 1466 1464 1461 1460 1462 1463 1466 1468 1468 1468 1468 1467 1468 1468 1468 1468 1468 1468 1468 1467 1467 1467 1465 1465 1465 1462 1460 1460 1460 1460 1458 1457 1457 1452 1443 1438 1436 1436 1437 1437 1432 1425 1419 1415 1414 1412 1408 1406 1409 1411 1410 1408 1409 1416 1426 1427 1422 1417 1416 1415 1416 1415 1415 1416 1415 1415 1414 1412 1410 1408 1406